Change the Weather History Date:

Friday, September 27, 2013

  Actual Average Record
Temperature  
Mean Temperature 66 °F -  
Max Temperature 73 °F 64 °F 88 °F (1956)
Min Temperature 59 °F 38 °F 23 °F (1942)
Cooling Degree Days 2    
Growing Degree Days 16 (Base 50)    
Moisture  
Dew Point 60 °F    
Average Humidity 78    
Maximum Humidity 94    
Minimum Humidity 68    
Precipitation  
Precipitation 0.14 in - - ()
Sea Level Pressure  
Sea Level Pressure 29.77 in    
Wind  
Wind Speed 11 mph (SSE)    
Max Wind Speed 21 mph    
Max Gust Speed 28 mph    
Visibility 10 miles    
Events Rain , Thunderstorm    
Averages and records for this station are not official NWS values.
T = Trace of Precipitation, MM = Missing Value Source: NWS Daily Summary

Daily Weather History Graph

Daily Weather History Graph

Search for Another Location

Airport or City:

Trip Planner

Search our weather history database for the weather conditions in past years. The results will help you decide how hot, cold, wet, or windy it might be!

Date:

Astronomy

Sep. 27, 2013 Rise Set
Actual Time 7:14 AM CDT 7:08 PM CDT
Civil Twilight 6:44 AM CDT 7:37 PM CDT
Nautical Twilight 6:09 AM CDT 8:13 PM CDT
Astronomical Twilight 5:33 AM CDT 8:48 PM CDT
Moon No Moon Rise 3:05 PM CDT (9/27)
Length of Visible Light 12h 53m
Length of Day
11h 53m
Last Quarter, 45% of the Moon is Illuminated
Sep 27
Last Quarter
Oct 4
New
Oct 11
First Quarter
Oct 18
Full
Oct 26
Last Quarter

Hourly Weather History & Observations

Time (CDT) Temp. Dew Point Humidity Pressure Visibility Wind Dir Wind Speed Gust Speed Precip Events Conditions
12:14 AM 66.2 °F 57.2 °F 73% 29.82 in 10.0 mi SSE 10.4 mph - N/A   Clear
12:35 AM 66.2 °F 57.2 °F 73% 29.82 in 10.0 mi SSE 10.4 mph - N/A   Clear
12:53 AM 66.2 °F 57.2 °F 73% 29.82 in 10.0 mi SSE 10.4 mph - N/A   Clear
1:14 AM 68.0 °F 57.2 °F 68% 29.82 in 10.0 mi SSE 11.5 mph - N/A   Clear
1:35 AM 68.0 °F 57.2 °F 68% 29.81 in 10.0 mi SSE 10.4 mph 18.4 mph N/A   Clear
1:53 AM 66.2 °F 57.2 °F 73% 29.82 in 10.0 mi SSE 11.5 mph - N/A   Clear
2:15 AM 66.2 °F 57.2 °F 73% 29.82 in 10.0 mi SSE 11.5 mph - N/A   Clear
2:35 AM 66.2 °F 57.2 °F 73% 29.82 in 10.0 mi SSE 11.5 mph - N/A   Clear
2:53 AM 66.2 °F 57.2 °F 73% 29.82 in 10.0 mi SSE 10.4 mph - N/A   Clear
3:15 AM 66.2 °F 57.2 °F 73% 29.81 in 10.0 mi SSE 11.5 mph - N/A   Clear
3:34 AM 64.4 °F 57.2 °F 77% 29.81 in 10.0 mi SSE 9.2 mph - N/A   Scattered Clouds
3:52 AM 64.4 °F 57.2 °F 77% 29.81 in 10.0 mi SSE 8.1 mph - N/A   Scattered Clouds
4:14 AM 64.4 °F 57.2 °F 77% 29.80 in 10.0 mi SE 4.6 mph - N/A   Scattered Clouds
4:35 AM 62.6 °F 57.2 °F 82% 29.80 in 10.0 mi SE 5.8 mph - N/A   Clear
4:53 AM 62.6 °F 57.2 °F 82% 29.80 in 10.0 mi ESE 6.9 mph - N/A   Clear
5:15 AM 62.6 °F 57.2 °F 82% 29.80 in 10.0 mi SE 5.8 mph - N/A   Scattered Clouds
5:34 AM 62.6 °F 57.2 °F 82% 29.81 in 10.0 mi SSE 5.8 mph - N/A   Scattered Clouds
5:53 AM 64.4 °F 57.2 °F 77% 29.82 in 10.0 mi SSE 5.8 mph - N/A   Mostly Cloudy
6:15 AM 64.4 °F 59.0 °F 83% 29.83 in 10.0 mi SSE 8.1 mph - N/A   Overcast
6:34 AM 62.6 °F 59.0 °F 88% 29.83 in 7.0 mi SSE 6.9 mph - 0.01 in Rain Rain
6:53 AM 62.6 °F 60.8 °F 94% 29.82 in 10.0 mi SE 6.9 mph - 0.08 in Rain Light Rain
7:15 AM 62.6 °F 60.8 °F 94% 29.81 in 7.0 mi SE 10.4 mph - 0.01 in Rain Rain
7:35 AM 62.6 °F 60.8 °F 94% 29.79 in 10.0 mi SE 8.1 mph - 0.04 in Rain Light Rain
7:53 AM 62.6 °F 60.8 °F 94% 29.79 in 7.0 mi SE 11.5 mph - 0.04 in   Scattered Clouds
8:14 AM 62.6 °F 60.8 °F 94% 29.77 in 7.0 mi SE 12.7 mph 18.4 mph N/A   Clear
8:34 AM 62.6 °F 60.8 °F 94% 29.78 in 10.0 mi SE 13.8 mph - N/A   Clear
8:53 AM 64.4 °F 62.6 °F 94% 29.77 in 10.0 mi SSE 9.2 mph - N/A   Scattered Clouds
9:15 AM 66.2 °F 62.6 °F 88% 29.79 in 10.0 mi SSE 12.7 mph 20.7 mph N/A   Scattered Clouds
9:34 AM 66.2 °F 62.6 °F 88% 29.79 in 10.0 mi SSE 17.3 mph 25.3 mph N/A   Scattered Clouds
9:53 AM 68.0 °F 62.6 °F 83% 29.79 in 10.0 mi SSE 16.1 mph 20.7 mph N/A   Scattered Clouds
10:15 AM 69.8 °F 62.6 °F 78% 29.78 in 10.0 mi SSE 13.8 mph 21.9 mph N/A   Scattered Clouds
10:34 AM 69.8 °F 62.6 °F 78% 29.78 in 10.0 mi SSE 17.3 mph 23.0 mph N/A   Clear
10:53 AM 69.8 °F 62.6 °F 78% 29.78 in 10.0 mi South 12.7 mph 20.7 mph N/A   Scattered Clouds
11:15 AM 69.8 °F 62.6 °F 78% 29.78 in 10.0 mi South 16.1 mph 23.0 mph N/A   Mostly Cloudy
11:35 AM 69.8 °F 62.6 °F 78% 29.77 in 3.0 mi South 15.0 mph 25.3 mph 0.01 in Rain Light Rain
11:53 AM 69.8 °F 62.6 °F 78% 29.77 in 10.0 mi South 20.7 mph 27.6 mph 0.01 in   Scattered Clouds
12:15 PM 71.6 °F 62.6 °F 73% 29.76 in 10.0 mi South 20.7 mph 27.6 mph N/A   Scattered Clouds
12:35 PM 71.6 °F 62.6 °F 73% 29.76 in 10.0 mi South 19.6 mph 27.6 mph N/A   Scattered Clouds
12:52 PM 71.6 °F 62.6 °F 73% 29.73 in 10.0 mi SSE 11.5 mph 26.5 mph N/A   Scattered Clouds
1:14 PM 69.8 °F 62.6 °F 78% 29.75 in 10.0 mi South 15.0 mph 21.9 mph N/A Rain Light Rain
1:34 PM 71.6 °F 62.6 °F 73% 29.75 in 10.0 mi South 12.7 mph 20.7 mph N/A   Mostly Cloudy
1:53 PM 71.6 °F 62.6 °F 73% 29.70 in 10.0 mi SE 16.1 mph 27.6 mph N/A   Scattered Clouds
2:15 PM 69.8 °F 62.6 °F 78% 29.74 in 10.0 mi SSE 15.0 mph 23.0 mph N/A   Scattered Clouds
2:35 PM 69.8 °F 62.6 °F 78% 29.72 in 10.0 mi SSE 12.7 mph - N/A   Scattered Clouds
2:53 PM 71.6 °F 62.6 °F 73% 29.72 in 10.0 mi SSE 17.3 mph 21.9 mph 0.01 in   Scattered Clouds
3:14 PM 71.6 °F 62.6 °F 73% 29.73 in 10.0 mi SSE 19.6 mph 26.5 mph N/A   Scattered Clouds
3:34 PM 71.6 °F 62.6 °F 73% 29.73 in 10.0 mi SSE 17.3 mph 24.2 mph N/A   Overcast
3:53 PM 71.6 °F 62.6 °F 73% 29.73 in 10.0 mi SSE 16.1 mph 21.9 mph N/A   Overcast
4:15 PM 73.4 °F 62.6 °F 69% 29.73 in 10.0 mi South 16.1 mph 25.3 mph N/A   Mostly Cloudy
4:35 PM 71.6 °F 62.6 °F 73% 29.74 in 10.0 mi South 17.3 mph 23.0 mph N/A   Overcast
4:52 PM 71.6 °F 62.6 °F 73% 29.74 in 10.0 mi South 13.8 mph 19.6 mph N/A   Overcast
5:15 PM 73.4 °F 62.6 °F 69% 29.73 in 10.0 mi SSE 12.7 mph - N/A   Mostly Cloudy
5:35 PM 73.4 °F 64.4 °F 73% 29.72 in 10.0 mi SSE 18.4 mph 21.9 mph N/A   Scattered Clouds
5:53 PM 73.4 °F 64.4 °F 73% 29.72 in 10.0 mi South 15.0 mph - N/A   Clear
6:15 PM 73.4 °F 62.6 °F 69% 29.72 in 10.0 mi South 10.4 mph - N/A   Clear
6:35 PM 73.4 °F 62.6 °F 69% 29.74 in 10.0 mi South 11.5 mph 18.4 mph N/A   Scattered Clouds
6:53 PM 71.6 °F 62.6 °F 73% 29.74 in 10.0 mi South 17.3 mph 24.2 mph N/A   Clear
7:14 PM 71.6 °F 60.8 °F 69% 29.74 in 10.0 mi South 15.0 mph - N/A   Light Drizzle
7:34 PM 71.6 °F 60.8 °F 69% 29.72 in 10.0 mi South 15.0 mph 21.9 mph N/A   Scattered Clouds
7:53 PM 71.6 °F 60.8 °F 69% 29.73 in 10.0 mi SSW 11.5 mph - N/A   Scattered Clouds
8:15 PM 71.6 °F 60.8 °F 69% 29.73 in 10.0 mi South 10.4 mph - N/A   Clear
8:35 PM 69.8 °F 60.8 °F 73% 29.73 in 10.0 mi South 5.8 mph - N/A   Clear
8:53 PM 69.8 °F 60.8 °F 73% 29.74 in 10.0 mi WSW 6.9 mph - N/A   Clear
9:15 PM 69.8 °F 60.8 °F 73% 29.75 in 10.0 mi SW 6.9 mph - N/A   Clear
9:35 PM 64.4 °F 59.0 °F 83% 29.75 in 10.0 mi West 10.4 mph - N/A   Clear
9:53 PM 62.6 °F 57.2 °F 82% 29.75 in 10.0 mi WSW 3.5 mph - N/A   Clear
10:15 PM 62.6 °F 57.2 °F 82% 29.74 in 10.0 mi Calm Calm - N/A   Clear
10:34 PM 60.8 °F 57.2 °F 88% 29.74 in 10.0 mi West 3.5 mph - N/A   Clear
10:53 PM 60.8 °F 57.2 °F 88% 29.75 in 10.0 mi WSW 3.5 mph - N/A   Clear
11:15 PM 60.8 °F 57.2 °F 88% 29.74 in 10.0 mi Calm Calm - N/A Rain , Thunderstorm Thunderstorms and Rain
11:34 PM 60.8 °F 57.2 °F 88% 29.75 in 10.0 mi West 6.9 mph - N/A   Mostly Cloudy
11:53 PM 59.0 °F 55.4 °F 88% 29.76 in 10.0 mi WNW 11.5 mph - N/A   Overcast